Location: ????????
(60.4333°N, 46.4710°E)
Time: 03:10:22
(UTC+00:00)

Cosmos 1151 Rocket - Pass Details

Date: 25 November 2020
Orbit: 593 x 615 km, 82.5° (Epoch: 19 January)

Event Time Altitude Azimuth Distance (km) Brightness Sun altitude
Rises 15:54:58 0° 204° (SSW) 2,843 6.7 -27.1°
Reaches altitude 10° 15:57:12 10° 208° (SSW) 1,941 5.8 -27.4°
Enters shadow 16:00:05 39° 229° (SW) 906 4.1 -27.8°
